SILO ALERT LOG


Silo ID Alert Type Alert Message Silo Type Points Depth (mm) Strength Temperature (°C) Humidity (%) Height (mm) Volume (㎥) Weight (t) Flag Time
DJDJD03 Humidity 습도센서 측정값이 80% 초과 61 4643 5136 2.4 82 3036 367.925 232.602 0 2024-01-13 01:39:39.000
DJSAD03 Humidity 습도센서 측정값이 80% 초과 443 1803 6221 3 84.5 6976 288.803 182.581 0 2024-01-13 01:39:39.000
DJSAD11 Humidity 습도센서 측정값이 80% 초과 332 1640 3297 1.5 80.4 5939 845.139 534.297 11 2024-01-13 01:39:35.000
DJSSD04 Temperature 온도센서 상태 이상 0 8200 0 -999 -999 -120 -16.702 0 31 2024-01-13 01:39:34.000
DJSSD01 Humidity 습도센서 측정값이 80% 초과 794 2573 4640 5.3 83.5 5506 766.414 484.527 0 2024-01-13 01:39:34.000
DJHNR01 Humidity 습도센서 측정값이 80% 초과 호퍼 471 4315 4879 5 99.9 11064 472.262 298.564 13 2024-01-13 01:39:33.000
DJSSD05 Temperature 온도센서 측정값이 0도 미만 845 2544 4906 -45.4 43.6 5535 770.398 487.046 0 2024-01-13 01:39:32.000
DJSAD16 Humidity 습도센서 측정값이 80% 초과 89 6554 3408 4.4 80.4 1025 102.106 64.551 11 2024-01-13 01:39:32.000
DJSAD08 Humidity 습도센서 측정값이 80% 초과 565 2301 4854 8 83.7 5278 751.114 474.854 12 2024-01-13 01:39:32.000
DJSAD18 Humidity 습도센서 측정값이 80% 초과 119 1572 5836 4.8 80.8 6007 598.198 378.181 11 2024-01-13 01:39:31.000
DJSSD11 Temperature 온도센서 측정값이 0도 미만 호퍼 445 7395 152 -4.7 70.6 3834 28.781 15.686 11 2024-01-13 01:39:31.000
DJSSD09 Temperature 온도센서 측정값이 0도 미만 118 3028 3194 -45.4 0 4651 647.38 409.274 11 2024-01-13 01:39:31.000
DJHNR11 Temperature 온도센서 측정값이 0도 미만 호퍼 113 4586 233 -4.1 76 5793 71.017 44.897 11 2024-01-13 01:39:31.000
DJDJD04 Humidity 습도센서 측정값이 80% 초과 283 4175 4480 3.3 81.6 3504 424.57 268.413 11 2024-01-13 01:39:31.000
DJSAD17 Humidity 습도센서 측정값이 80% 초과 449 3109 4867 3.9 81.1 4470 445.123 281.407 0 2024-01-13 01:39:30.000
DJHNR14 Temperature 온도센서 측정값이 0도 미만 호퍼 38 3121 4431 -3.6 73 7258 102.614 64.873 11 2024-01-13 01:39:30.000
DJHNR13 Temperature 온도센서 측정값이 0도 미만 호퍼 13 2698 3089 -2.9 68.5 7681 111.731 70.636 0 2024-01-13 01:39:29.000
DJSSD12 Temperature 온도센서 상태 이상 호퍼 0 11350 0 -999 -999 -120 0 0 31 2024-01-13 01:39:24.000
DJHNR12 Temperature 온도센서 측정값이 0도 미만 호퍼 0 10500 0 -1.3 78.3 -120 0 0 31 2024-01-13 01:39:23.000
DJHNR03 Temperature 온도센서 상태 이상 호퍼 0 15500 0 -999 -999 -119 0 0 31 2024-01-13 01:39:23.000

[첫 페이지] [9972] [9973] [9974] [9975] 9976 [9977] [9978] [9979] [9980] [마지막 페이지]